Find Starlink 34013

NORAD ID: 63871 Int'l Des: 2025-094 Owner: SPXS Country: US Constellation: starlink operational
LEOCIRCULAR

現在のビュー

3D地球を読み込み中...

About Starlink 34013

Starlink 34013 (NORAD 63871) is a starlink constellation satellite (v2 mini) launched May 10, 2025 by SPXS of US. It operates in LEO, CIRCULAR orbit with a mass of 575.00 kg.

Starlink 34013について

説明を読み込み中...

次回通過

Passes for default location (London). Set your location on the main map for personalized predictions.

高度履歴

Loading altitude history...

軌道要素

1 63871U 25094H 26194.65176682 .00001889 00000-0 16608-3 0 9998
2 63871 70.0010 276.7638 0003708 267.9116 92.1618 14.98334619 66078
Epoch: Jul 13, 2026 • Age: 17 hours

現在のステータス

高度 593.8 km
遠地点 / 近地点 N/A
速度 7.56 km/s
衛星直下点 -65.40°S, 156.47°E
打ち上げ日 May 10, 2025
運用期間 1.1 years
タイプ internet

技術仕様

分類 Payload
質量 575.00 kg
乾燥質量 530.00 kg
総質量 575.00 kg
長さ 0.30 m
直径 4.10 m
スパン 29.00 m
形状 Box + pan
製造者 SPXS
バスタイプ Starlink V2MO
フェーズステータス In Orbit
所有者/国 SPXS/US

Most Searched